Location: Mason Neck State Park
(38.6428°N, 77.1981°W)
Time: 05:44:09
(UTC-04:00)

Cosmos 2278 Rocket - Visible Passes

Search period start: 27 July 2016 00:00
Search period end: 06 August 2016 00:00
Orbit: 840 x 847 km, 71.0° (Epoch: 26 July)

Date Brightness Start Highest point End Pass type
(mag) Time Alt. Az. Time Alt. Az. Time Alt. Az.
27 Jul 2.1 21:43:54 10° SSW 21:49:33 79° ESE 21:55:15 10° NNE visible
27 Jul 4.9 23:30:56 10° W 23:34:18 16° NW 23:37:42 10° NNW visible
28 Jul 2.1 21:29:23 10° SSW 21:35:02 75° ESE 21:40:43 10° NNE visible
28 Jul 5.0 23:16:14 10° W 23:19:45 17° NW 23:23:17 10° NNW visible
29 Jul 2.2 21:14:53 10° SSW 21:20:31 72° ESE 21:26:11 10° NNE visible
29 Jul 5.0 23:01:32 10° W 23:05:11 17° NW 23:08:51 10° NNW visible
30 Jul 2.2 21:00:23 10° SSW 21:06:00 69° ESE 21:11:39 10° NNE visible
30 Jul 5.0 22:46:51 10° W 22:50:37 18° NW 22:54:25 10° N visible
31 Jul 2.2 20:45:52 10° S 20:51:28 66° ESE 20:57:07 10° NNE visible
31 Jul 5.0 22:32:10 10° W 22:36:04 19° NW 22:39:58 10° N visible
01 Aug 4.9 05:42:03 10° N 05:46:43 25° ENE 05:51:20 10° ESE visible
01 Aug 5.0 22:17:30 10° W 22:21:30 19° NW 22:25:31 10° N visible
02 Aug 4.9 05:27:35 10° N 05:32:09 24° NE 05:36:42 10° ESE visible
02 Aug 5.0 22:02:50 10° W 22:06:56 20° NW 22:11:04 10° N visible
03 Aug 4.9 05:13:06 10° N 05:17:36 23° NE 05:22:04 10° ESE visible
03 Aug 4.9 21:48:11 10° WSW 21:52:23 21° NW 21:56:36 10° N visible
04 Aug 4.9 04:58:38 10° N 05:03:03 23° NE 05:07:26 10° ESE visible
04 Aug 4.9 21:33:32 10° WSW 21:37:50 22° NW 21:42:09 10° N visible
05 Aug 4.9 04:44:10 10° N 04:48:29 22° NE 04:52:47 10° ESE visible
05 Aug 4.9 21:18:53 10° WSW 21:23:16 23° NW 21:27:41 10° N visible
